Showing default

R5-S4, 60206

Orbit data source: Space-Track

R5-S4, 60206 is a payload satellite owned by NASA JSC (US) in SSO that was launched on Thu, 04 Jul 2024 UTC via an FIREFLY ALPHA launch vehicle from the Air Force Western Test Range (AFWTR). Payloads include a variety of satellites, spacecraft, and rockets equipped with specific instruments for various scientific and technological missions. These include communications satellites like Starlink; space stations such as the ISS; scientific satellites like the Hubble; Earth observation satellites from companies like Planet Labs, Umbra, and HawkEye 360; GPS; miniature CubeSats for education and research; and military/defense satellites.

Loading next visibility...
R5-S4 details
Identifier
60206, 2024-125D
Orbit
SSO
Last TLE update1 day ago
Origin
Flag of USNASA JSC (US)
ManufacturerNASA JSC
MissionOperational spacecraft
Bus & MotorCUBESAT 6U, Unknown motor
Mass10 kg wet, ~10 kg dry
Launch date (UTC)
2024-07-04 (6 months ago)
Launch vehicle
FIREFLY ALPHA
Launch site
Air Force Western Test Range (AFWTR)
Object type
Payload
Rocket body
Debris
Shape & HBRUnknown
Radar Cross SectionSmall (<0.1 m²)

Expand to show TLE details & history

TLE from 1 day ago
0 R5-S4
1 60206U 24125D   24355.58310871  .00012636  00000-0  49412-3 0  9991
2 60206  97.2980 203.8888 0025042  22.8705 337.3643 15.25686614 25779
Epoch: 2024-12-20T13:59Z
Definitive object data (Epoch: 2024-12-20T13:59:40.592Z)
Latitude-0.00001°
Longitude-95.67687°
Altitude475.957 km
Speed7.637 km/s
True Right ascension13h 35m 33s
True Declination0° 00' 00"
Sunlit
Object was in daylight at TLE epoch
Visualization TLE readout
Latitude69.99128°
Longitude105.8389°
Altitude500.623 km
Speed7.621 km/s
Apparent Right ascension02h 48m 02s
Apparent Declination18° 05' 53"
Sunlit
Object is in full shadow
Visualization observer readout
Local Sidereal Time14:41:30
Azimuth358.168° N
Elevation-31.966°
Doppler factor1
Orbital elements
Apogee altitude502.866 km
Perigee altitude468.49 km
Semi-major axis6,863.815 km
Eccentricity0.0025042
Inclination97.298°
RAAN203.8888°
Arg. of periapsis22.8705°
True anomaly337.25354°
Mean anomaly337.3643°
Eccentric anomaly337.30895°
Mean motion3.81676 °/min
BSTAR0.00049412
Orbital period94.32 mins
Loading maneuver chart data...
Loading historical data...
Loading historical data...
Loading historical data...
Loading historical data...
Loading historical data...
Loading historical data...
Loading historical data...

R5-S4 Visibility forecast

Observer location: undefined°, undefined

Span
Click to sort rows by Start time (UTC) header in descending order
Start Az.
Max El. time (UTC)
Max El. Az.
Max El.
End time (UTC)
End Az.
6 mins2024-12-22 02:45:10.393Z20.661° NNE2024-12-22 02:48:10.393Z72.078° E39.245°2024-12-22 02:51:10.393Z176.684° S
4 mins2024-12-22 14:56:10.393Z232.632° WSW2024-12-22 14:57:10.393Z255.13° W19.715°2024-12-22 15:00:10.393Z315.338° NNW
|